FW6767 Weather Reports


time (UTC)temp
F
wind
direction
speed
knots
gust
knots
rain 1hr
in
rain 24hr
in
rain mn
in
humidity
%
barometer
mb
20260505213104 78 355 0.9 3.5 0.00 0.00 0.00 43 1014.2
20260505211556 78 202 0.9 4.3 0.00 0.00 0.00 42 1014.2
20260505210103 78 202 0.0 7.0 0.00 0.00 0.00 42 1014.3
20260505204605 79 16 1.7 7.0 0.00 0.00 0.00 41 1014.3
20260505203057 79 288 0.9 3.5 0.00 0.00 0.00 39 1014.6
20260505201558 79 186 0.9 3.5 0.00 0.00 0.00 43 1014.7
20260505200105 79 190 0.0 4.3 0.00 0.00 0.00 45 1014.8
20260505194605 80 219 0.0 3.5 0.00 0.00 0.00 43 1015.0
20260505193057 81 0 0.9 2.6 0.00 0.00 0.00 40 1015.3
20260505191556 81 345 1.7 7.8 0.00 0.00 0.00 39 1015.8
20260505190054 81 42 0.9 3.5 0.00 0.00 0.00 40 1015.9
20260505184556 80 196 0.9 3.5 0.00 0.00 0.00 43 1015.9
20260505183057 81 294 0.9 2.6 0.00 0.00 0.00 44 1016.2
20260505181557 81 111 0.9 3.5 0.00 0.00 0.00 38 1016.1
20260505180112 82 150 0.9 3.5 0.00 0.00 0.00 38 1016.5
20260505174604 81 130 0.0 3.5 0.00 0.00 0.00 40 1016.8
20260505173058 81 355 0.9 8.7 0.00 0.00 0.00 42 1017.0
20260505171559 80 0 1.7 5.2 0.00 0.00 0.00 43 1017.4
20260505170106 78 138 1.7 5.2 0.00 0.00 0.00 42 1017.2
20260505164605 79 235 0.9 4.3 0.00 0.00 0.00 44 1017.2
20260505163059 78 252 0.9 3.5 0.00 0.00 0.00 48 1017.1
20260505161623 77 115 0.9 2.6 0.00 0.00 0.00 50 1017.4
20260505160105 75 110 0.9 3.5 0.00 0.00 0.00 57 1017.4
20260505153059 73 195 0.0 3.5 0.00 0.00 0.00 58 1017.8
20260505151601 72 72 0.0 1.7 0.00 0.00 0.00 56 1017.9
20260505140109 67 0 0.0 1.7 0.00 0.00 0.00 68 1017.7
20260505124559 56 0 0.0 0.0 0.00 0.00 0.00 90 1017.3
20260505123103 52 0 0.0 0.0 0.00 0.00 0.00 96 1017.5
20260505121557 49 0 0.0 0.0 0.00 0.00 0.00 94 1017.2
20260505120058 48 0 0.0 0.0 0.00 0.00 0.00 93 1017.0
20260505114555 47 0 0.0 0.0 0.00 0.00 0.00 94 1016.8
20260505113110 46 0 0.0 0.0 0.00 0.00 0.00 94 1016.6
20260505111556 46 0 0.0 0.0 0.00 0.00 0.00 93 1016.6
20260505101556 46 0 0.0 0.0 0.00 0.00 0.00 93 1016.3
20260505100057 46 0 0.0 0.0 0.00 0.00 0.00 92 1016.3
20260505094555 46 0 0.0 0.0 0.00 0.00 0.00 92 1016.3
20260505093058 47 0 0.0 0.0 0.00 0.00 0.00 93 1016.2
20260505091615 47 0 0.0 0.0 0.00 0.00 0.00 92 1016.2
20260505090057 47 0 0.0 0.0 0.00 0.00 0.00 92 1016.0
20260505084555 47 0 0.0 0.0 0.00 0.00 0.00 92 1016.1
20260505083100 47 0 0.0 0.0 0.00 0.00 0.00 92 1016.1
20260505081602 48 0 0.0 0.0 0.00 0.00 0.00 91 1015.9
20260505080111 48 0 0.0 0.0 0.00 0.00 0.00 90 1015.9
20260505074559 48 0 0.0 0.0 0.00 0.00 0.00 90 1015.5
20260505073058 49 0 0.0 0.9 0.00 0.00 0.00 90 1015.5
20260505071604 49 0 0.0 0.9 0.00 0.00 0.00 89 1015.4
20260505070059 50 0 0.0 0.0 0.00 0.00 0.00 89 1015.6
20260505064557 50 0 0.0 0.9 0.00 0.00 0.00 89 1015.7
20260505063137 50 285 0.0 0.9 0.00 0.00 0.00 88 1015.9
20260505061639 51 0 0.0 0.9 0.00 0.00 0.00 88 1015.9
20260505054559 52 0 0.0 0.9 0.00 0.00 0.00 88 1015.7
20260505053058 52 0 0.0 0.0 0.00 0.00 0.00 87 1015.9
20260505051613 52 0 0.0 0.0 0.00 0.00 0.00 87 1015.9
20260505041556 54 0 0.0 0.0 0.00 0.00 0.00 86 1015.9
20260505040107 55 0 0.0 0.0 0.00 0.00 0.00 85 1015.9
20260505034555 55 0 0.0 0.0 0.00 0.00 0.00 85 1016.1
20260505033056 56 0 0.0 0.9 0.00 0.00 0.00 84 1016.2
20260505031559 56 0 0.0 0.9 0.00 0.00 0.00 84 1016.2
20260505030057 57 0 0.0 0.0 0.00 0.00 0.00 82 1016.2
20260505024555 58 0 0.0 0.0 0.00 0.00 0.00 81 1016.2
20260505023056 58 0 0.0 0.0 0.00 0.00 0.00 80 1016.2
20260505021555 59 0 0.0 0.0 0.00 0.00 0.00 80 1015.8
20260505020104 60 0 0.0 0.0 0.00 0.00 0.00 79 1015.7
20260505014557 60 0 0.0 0.0 0.00 0.00 0.00 77 1015.7
20260505013106 61 0 0.0 0.9 0.00 0.00 0.00 76 1015.7
20260505011555 62 0 0.0 0.0 0.00 0.00 0.00 75 1015.4
20260505010111 64 0 0.0 0.0 0.00 0.00 0.00 72 1015.3
20260505004554 65 0 0.0 0.0 0.00 0.00 0.00 70 1015.3
20260505003059 67 0 0.0 0.0 0.00 0.00 0.00 67 1015.0
20260505001603 68 0 0.0 0.0 0.00 0.00 0.00 64 1015.1
20260504234600 71 0 0.0 0.0 0.00 0.00 0.00 58 1014.9
20260504233109 72 0 0.0 0.0 0.00 0.00 0.00 51 1014.8
20260504231603 73 0 0.0 0.0 0.00 0.00 0.00 48 1014.7
20260504230059 73 0 0.0 2.6 0.00 0.00 0.00 45 1014.6
20260504224556 74 0 0.0 1.7 0.00 0.00 0.00 45 1014.6
20260504223057 74 0 0.0 2.6 0.00 0.00 0.00 45 1014.7
20260504221557 75 0 0.0 2.6 0.00 0.00 0.00 47 1014.7
20260504220059 75 269 0.0 0.9 0.00 0.00 0.00 48 1014.7
20260504214556 76 0 0.0 0.9 0.00 0.00 0.00 47 1014.7